Tracking 20066 objects as of 7-Dec-2019
HD Live streaming from Space Station
objects crossing your sky now

COSMOS 2251 DEB

Track COSMOS 2251 DEB now!
10-day predictions


NORAD ID: 34032
Int'l Code: 1993-036HT
Perigee: 705.8 km
Apogee: 784.3 km
Inclination: 74.0 °
Period: 99.6 minutes
Semi major axis: 7116 km
RCS: 0.032 m2 (small)
Launch date: June 16, 1993
Source: Commonwealth of Independent States (former USSR) (CIS)
Launch site: PLESETSK MISSILE AND SPACE COMPLEX (PKMTR)

Note: This is SATELLITE DEBRIS
aabbcc
Your satellite tracking list
Your tracking list is empty




NASA's NSSDC Master Catalog

Two Line Element Set (TLE):
1 34032U 93036HT  19340.38081434 +.00000771 +00000-0 +21915-3 0  9997
2 34032 074.0338 313.6025 0055194 207.8473 303.6723 14.46249742567054
Source of the keplerian elements: AFSPC